This is the latest recevied weather packets stored in our database for station/object N6GPM. If no packets are shown the sender has not sent any weather packets the latest 10 day(s).
| Time | Temp. | Humidity | Pressure | Rain* | Wind** | Luminosity | Snow |
|---|---|---|---|---|---|---|---|
| 1788014274 | 26.11° C | 54% | 1017.7 hPa | 0 mm | - | 158 W/m² | - |
| 1788013969 | 26.11° C | 55% | 1018.1 hPa | 0 mm | - | 140 W/m² | - |
| 1788013663 | 26.11° C | 55% | 1018 hPa | 0 mm | - | 125 W/m² | - |
| 1788013357 | 25.56° C | 58% | 1017.8 hPa | 0 mm | - | 109 W/m² | - |
| 1788013052 | 25.56° C | 59% | 1017.7 hPa | 0 mm | - | 96 W/m² | - |
| 1788012751 | 25° C | 60% | 1017.5 hPa | 0 mm | - | 84 W/m² | - |
| 1788012447 | 25° C | 60% | 1017.6 hPa | 0 mm | - | 73 W/m² | - |
| 1788012146 | 24.44° C | 60% | 1017.7 hPa | 0 mm | - | 65 W/m² | - |
| 1788011845 | 24.44° C | 61% | 1017.6 hPa | 0 mm | - | 56 W/m² | - |
| 1788011544 | 24.44° C | 60% | 1017.5 hPa | 0 mm | - | 46 W/m² | - |
| 1788011240 | 24.44° C | 59% | 1017.2 hPa | 0 mm | - | 37 W/m² | - |
| 1788010939 | 24.44° C | 58% | 1017.3 hPa | 0 mm | - | 28 W/m² | - |
| 1788010633 | 24.44° C | 57% | 1017.3 hPa | 0 mm | - | 21 W/m² | - |
| 1788010327 | 24.44° C | 55% | 1017.3 hPa | 0 mm | - | 14 W/m² | - |
| 1788010026 | 24.44° C | 55% | 1017.3 hPa | 0 mm | - | 9 W/m² | - |
| 1788009721 | 24.44° C | 55% | 1017.2 hPa | 0 mm | - | 5 W/m² | - |
| 1788009419 | 24.44° C | 55% | 1017.3 hPa | 0 mm | - | 3 W/m² | - |
| 1788009114 | 24.44° C | 55% | 1017.5 hPa | 0 mm | - | 1 W/m² | - |
| 1788008810 | 24.44° C | 54% | 1017.2 hPa | 0 mm | - | 0 W/m² | - |
| 1788008509 | 24.44° C | 54% | 1017.3 hPa | 0 mm | - | 0 W/m² | - |
| 1788008206 | 25° C | 53% | 1017.3 hPa | 0 mm | - | 0 W/m² | - |
| 1788007904 | 24.44° C | 53% | 1017.2 hPa | 0 mm | - | 0 W/m² | - |
| 1788007604 | 24.44° C | 54% | 1017.2 hPa | 0 mm | - | 0 W/m² | - |
| 1788007298 | 24.44° C | 54% | 1017 hPa | 0 mm | - | 0 W/m² | - |
| 1788006993 | 25° C | 54% | 1017.2 hPa | 0 mm | - | 0 W/m² | - |
* Rain latest hour (hover to see other rain measurements)
** Current wind speed in m/s (hover to see current wind gust speed)